This demonstration page uses our WeatherBlox Daily Observations layout. Learn more.

Left ArrowRight Arrow

34.16533, -84.80231

Hourly Observations for August 28, 2020

Temp ( °F °C ) Dew Point ( °F °C ) Humidity (%) Winds ( mph kmh ) Pressure ( in mb ) Visibility ( mi km ) Precip ( " mm )
12:53 am 00:53 Mostly Cloudy 79 26.1 75 23.9 88 88 SE 3 6 29.98 1015 9 14 0.00 0.00
1:53 am 01:53 Partly Cloudy 79 26.1 73 22.8 82 82 SSE 3 6 29.98 1015 9 14 0.00 0.00
2:53 am 02:53 Cloudy 78 25.6 74 23.3 87 87 SE 3 6 29.98 1015 9 14 0.00 0.00
3:53 am 03:53 Mostly Clear 78 25.6 73 22.8 85 85 SSE 3 6 29.97 1015 9 14 0.00 0.00
4:53 am 04:53 Mostly Clear 78 25.6 72 22.2 82 82 S 7 11 29.96 1015 8 13 0.00 0.00
5:53 am 05:53 Cloudy 78 25.6 73 22.8 85 85 Calm 29.98 1015 8 13 0.00 0.00
6:53 am 06:53 Cloudy 77 25 73 22.8 88 88 Calm 29.99 1016 8 13 0.00 0.00
7:53 am 07:53 Partly Cloudy 77 25 73 22.8 88 88 SE 3 6 29.99 1016 7 11 0.00 0.00
8:53 am 08:53 Sunny 78 25.6 73 22.8 85 85 SSE 5 7 30.00 1016 7 11 0.00 0.00
9:53 am 09:53 Hazy 80 26.7 73 22.8 79 79 SSE 7 11 30.00 1016 6 10 0.00 0.00
10:53 am 10:53 Mostly Cloudy 82 27.8 74 23.3 77 77 VRB 5 7 30.01 1016 8 13 0.00 0.00
11:53 am 11:53 Partly Cloudy 83 28.3 73 22.8 72 72 S 6 9 29.99 1016 9 14 0.00 0.00
12:53 pm 12:53 Mostly Cloudy 85 29.4 74 23.3 70 70 S 7 11 29.97 1015 10 16 0.00 0.00
2:53 pm 14:53 Mostly Cloudy 86 30 74 23.3 67 67 SSW 7 11 29.92 1013 10 16 0.00 0.00
3:46 pm 15:46 Mostly Cloudy with Nearby Thunderstorms 83 28.3 74 23.3 74 74 SSW 3 6 29.92 1013 7 11 0.00 0.00
3:53 pm 15:53 Mostly Cloudy with Thunderstorms 80 26.7 75 23.9 85 85 VRB 5 7 29.93 1014 1 2 0.11 2.79
3:55 pm 15:55 Mostly Cloudy with Strong Thunderstorms 79 26.1 75 23.9 88 88 VRB 6 9 29.94 1014 0 0 0.22 5.59
4:08 pm 16:08 Cloudy with Thunderstorms 77 25 75 23.9 94 94 SSW 8 13 29.94 1014 1 2 0.43 10.92
4:14 pm 16:14 Cloudy with Nearby Thunderstorms 77 25 74 23.3 90 90 S 7 11 29.93 1014 3 5 0.44 11.18
4:33 pm 16:33 Mostly Cloudy with Light Rain 75 23.9 72 22.2 90 90 SSE 6 9 29.90 1013 10 16 0.46 11.68
4:53 pm 16:53 Mostly Cloudy with Light Rain 78 25.6 73 22.8 85 85 S 3 6 29.89 1012 10 16 0.46 11.68
5:53 pm 17:53 Mostly Sunny 83 28.3 75 23.9 77 77 Calm 29.88 1012 10 16 0.00 0.00
6:53 pm 18:53 Cloudy 82 27.8 77 25 85 85 Calm 29.89 1012 10 16 0.00 0.00
7:53 pm 19:53 Mostly Cloudy 79 26.1 74 23.3 85 85 SSE 7 11 29.87 1012 10 16 0.00 0.00
8:53 pm 20:53 Clear 78 25.6 72 22.2 82 82 S 5 7 29.88 1012 10 16 0.00 0.00
9:53 pm 21:53 Mostly Cloudy 78 25.6 72 22.2 82 82 Calm 29.89 1012 10 16 0.00 0.00
10:53 pm 22:53 Mostly Cloudy 77 25 71 21.7 82 82 SSW 5 7 29.89 1012 10 16 0.00 0.00
11:53 pm 23:53 Mostly Clear 77 25 71 21.7 82 82 S 5 7 29.88 1012 10 16 0.00 0.00

Powered by AerisWeather